| time (UTC) | temp F | wind direction | speed MPH | gust MPH | rain 1hr in | rain 24hr in | rain mn in | humidity % | barometer mb |
| 20260508012704 | 52 | 199 | 5.0 | 9.0 | 0.00 | 0.10 | 0.00 | 71 | 998.4 |
| 20260508011804 | 53 | 221 | 6.0 | 9.0 | 0.00 | 0.10 | 0.00 | 66 | 998.4 |
| 20260508010004 | 54 | 217 | 4.0 | 7.0 | 0.00 | 0.10 | 0.00 | 58 | 998.3 |
| 20260508005104 | 56 | 293 | 3.0 | 7.0 | 0.00 | 0.10 | 0.00 | 56 | 998.1 |
| 20260508003304 | 57 | 8 | 11.0 | 14.0 | 0.00 | 0.10 | 0.00 | 44 | 997.9 |
| 20260508002404 | 57 | 351 | 11.0 | 15.0 | 0.00 | 0.10 | 0.00 | 46 | 997.7 |
| 20260508001504 | 58 | 339 | 9.0 | 12.0 | 0.00 | 0.10 | 0.00 | 44 | 997.7 |
| 20260508000604 | 58 | 334 | 8.0 | 11.0 | 0.00 | 0.10 | 0.00 | 43 | 997.7 |
| 20260507234804 | 58 | 324 | 6.0 | 10.0 | 0.00 | 0.10 | 0.10 | 44 | 997.4 |
| 20260507233904 | 58 | 318 | 7.0 | 12.0 | 0.00 | 0.10 | 0.10 | 45 | 997.5 |
| 20260507233004 | 59 | 320 | 8.0 | 12.0 | 0.00 | 0.10 | 0.10 | 41 | 997.2 |
| 20260507232104 | 59 | 300 | 5.0 | 9.0 | 0.00 | 0.10 | 0.10 | 41 | 997.0 |
| 20260507231204 | 59 | 300 | 7.0 | 10.0 | 0.00 | 0.10 | 0.10 | 41 | 996.9 |
| 20260507230304 | 59 | 295 | 8.0 | 13.0 | 0.00 | 0.10 | 0.10 | 40 | 996.8 |
| 20260507225404 | 60 | 288 | 7.0 | 11.0 | 0.00 | 0.10 | 0.10 | 40 | 996.9 |
| 20260507224504 | 59 | 290 | 8.0 | 13.0 | 0.00 | 0.10 | 0.10 | 39 | 996.9 |
| 20260507223603 | 60 | 302 | 7.0 | 12.0 | 0.00 | 0.10 | 0.10 | 40 | 996.8 |
| 20260507222704 | 60 | 289 | 9.0 | 15.0 | 0.00 | 0.10 | 0.10 | 39 | 996.9 |
| 20260507221803 | 60 | 296 | 8.0 | 14.0 | 0.00 | 0.10 | 0.10 | 39 | 996.9 |
| 20260507220903 | 59 | 295 | 8.0 | 13.0 | 0.00 | 0.10 | 0.10 | 38 | 996.9 |
| 20260507220004 | 60 | 288 | 7.0 | 13.0 | 0.00 | 0.10 | 0.10 | 38 | 996.9 |
| 20260507215103 | 61 | 294 | 5.0 | 13.0 | 0.00 | 0.10 | 0.10 | 38 | 996.9 |
| 20260507214203 | 59 | 293 | 8.0 | 13.0 | 0.00 | 0.10 | 0.10 | 38 | 996.8 |
| 20260507213303 | 60 | 289 | 6.0 | 13.0 | 0.00 | 0.10 | 0.10 | 39 | 996.8 |
| 20260507211503 | 59 | 297 | 8.0 | 16.0 | 0.00 | 0.10 | 0.10 | 39 | 996.8 |
| 20260507205703 | 60 | 281 | 7.0 | 13.0 | 0.00 | 0.10 | 0.10 | 38 | 996.7 |
| 20260507203903 | 59 | 290 | 7.0 | 14.0 | 0.00 | 0.10 | 0.10 | 39 | 996.8 |
| 20260507203003 | 58 | 290 | 8.0 | 14.0 | 0.00 | 0.10 | 0.10 | 39 | 996.8 |
| 20260507202103 | 58 | 284 | 10.0 | 18.0 | 0.00 | 0.10 | 0.10 | 39 | 996.8 |
| 20260507201203 | 58 | 289 | 10.0 | 15.0 | 0.00 | 0.10 | 0.10 | 39 | 996.8 |
| 20260507200303 | 58 | 297 | 9.0 | 15.0 | 0.00 | 0.10 | 0.10 | 39 | 996.8 |
| 20260507195403 | 58 | 292 | 7.0 | 13.0 | 0.00 | 0.10 | 0.10 | 39 | 997.0 |
| 20260507194503 | 58 | 286 | 11.0 | 18.0 | 0.00 | 0.10 | 0.10 | 41 | 997.0 |
| 20260507192703 | 58 | 307 | 7.0 | 12.0 | 0.00 | 0.10 | 0.10 | 40 | 997.2 |
| 20260507191803 | 57 | 350 | 9.0 | 16.0 | 0.00 | 0.10 | 0.10 | 42 | 997.2 |
| 20260507190903 | 57 | 317 | 8.0 | 13.0 | 0.00 | 0.10 | 0.10 | 41 | 997.3 |
| 20260507190004 | 57 | 308 | 7.0 | 11.0 | 0.00 | 0.10 | 0.10 | 43 | 997.4 |
| 20260507185102 | 57 | 322 | 9.0 | 15.0 | 0.00 | 0.10 | 0.10 | 43 | 997.6 |
| 20260507184202 | 56 | 320 | 7.0 | 14.0 | 0.00 | 0.10 | 0.10 | 43 | 997.8 |
| 20260507183302 | 56 | 353 | 9.0 | 16.0 | 0.00 | 0.11 | 0.10 | 43 | 997.9 |
| 20260507182402 | 56 | 319 | 6.0 | 16.0 | 0.00 | 0.11 | 0.10 | 41 | 998.0 |
| 20260507180602 | 55 | 358 | 9.0 | 15.0 | 0.00 | 0.11 | 0.10 | 42 | 998.3 |
| 20260507175702 | 55 | 350 | 10.0 | 15.0 | 0.00 | 0.11 | 0.10 | 43 | 998.3 |
| 20260507174802 | 55 | 320 | 8.0 | 17.0 | 0.00 | 0.11 | 0.10 | 44 | 998.3 |
| 20260507173902 | 54 | 328 | 13.0 | 22.0 | 0.00 | 0.12 | 0.10 | 45 | 998.4 |
| 20260507172102 | 54 | 318 | 12.0 | 21.0 | 0.00 | 0.14 | 0.10 | 44 | 998.6 |
| 20260507171202 | 54 | 335 | 12.0 | 20.0 | 0.00 | 0.15 | 0.10 | 47 | 998.6 |
| 20260507170302 | 54 | 340 | 12.0 | 23.0 | 0.00 | 0.16 | 0.10 | 48 | 998.8 |
| 20260507165402 | 54 | 349 | 11.0 | 17.0 | 0.00 | 0.16 | 0.10 | 48 | 998.9 |
| 20260507163602 | 53 | 329 | 11.0 | 20.0 | 0.00 | 0.16 | 0.10 | 51 | 999.1 |
| 20260507162702 | 54 | 339 | 7.0 | 13.0 | 0.00 | 0.16 | 0.10 | 53 | 999.2 |
| 20260507161802 | 54 | 342 | 7.0 | 18.0 | 0.00 | 0.16 | 0.10 | 57 | 999.5 |
| 20260507154202 | 53 | 320 | 10.0 | 17.0 | 0.00 | 0.16 | 0.10 | 69 | 999.8 |
| 20260507153303 | 52 | 318 | 11.0 | 19.0 | 0.00 | 0.16 | 0.10 | 72 | 999.9 |
| 20260507152402 | 52 | 356 | 11.0 | 17.0 | 0.00 | 0.16 | 0.10 | 72 | 999.9 |
| 20260507151502 | 51 | 338 | 12.0 | 19.0 | 0.00 | 0.16 | 0.10 | 75 | 1000.0 |
| 20260507150602 | 51 | 336 | 11.0 | 17.0 | 0.00 | 0.16 | 0.10 | 77 | 1000.1 |
| 20260507145702 | 51 | 344 | 12.0 | 18.0 | 0.00 | 0.16 | 0.10 | 77 | 1000.0 |
| 20260507144802 | 51 | 323 | 10.0 | 16.0 | 0.00 | 0.16 | 0.10 | 78 | 1000.0 |
| 20260507143901 | 50 | 338 | 11.0 | 16.0 | 0.00 | 0.16 | 0.10 | 81 | 1000.0 |
| 20260507143002 | 50 | 335 | 11.0 | 16.0 | 0.00 | 0.16 | 0.10 | 83 | 999.9 |
| 20260507142102 | 50 | 336 | 10.0 | 16.0 | 0.00 | 0.16 | 0.10 | 82 | 1000.0 |
| 20260507140302 | 49 | 320 | 13.0 | 20.0 | 0.00 | 0.16 | 0.10 | 85 | 1000.0 |
| 20260507135402 | 49 | 350 | 15.0 | 24.0 | 0.00 | 0.16 | 0.10 | 84 | 999.9 |
| 20260507134502 | 49 | 334 | 15.0 | 20.0 | 0.00 | 0.16 | 0.10 | 84 | 999.9 |
| 20260507133601 | 49 | 354 | 14.0 | 21.0 | 0.00 | 0.16 | 0.10 | 83 | 999.8 |
| 20260507131802 | 48 | 357 | 13.0 | 22.0 | 0.00 | 0.16 | 0.10 | 86 | 1000.1 |
| 20260507130901 | 48 | 356 | 13.0 | 18.0 | 0.00 | 0.16 | 0.10 | 88 | 1000.1 |
| 20260507130002 | 48 | 351 | 13.0 | 19.0 | 0.00 | 0.16 | 0.10 | 89 | 1000.1 |
| 20260507125101 | 48 | 347 | 15.0 | 19.0 | 0.00 | 0.16 | 0.10 | 89 | 1000.0 |
| 20260507124201 | 48 | 354 | 16.0 | 20.0 | 0.00 | 0.16 | 0.10 | 89 | 999.8 |
| 20260507123301 | 48 | 350 | 16.0 | 20.0 | 0.00 | 0.16 | 0.10 | 88 | 999.8 |
| 20260507122401 | 48 | 340 | 15.0 | 22.0 | 0.00 | 0.16 | 0.10 | 89 | 999.8 |
| 20260507121501 | 48 | 355 | 15.0 | 22.0 | 0.00 | 0.16 | 0.10 | 89 | 999.8 |
| 20260507120601 | 48 | 359 | 15.0 | 20.0 | 0.00 | 0.16 | 0.10 | 91 | 999.6 |
| 20260507115701 | 48 | 358 | 15.0 | 22.0 | 0.00 | 0.16 | 0.10 | 92 | 999.5 |
| 20260507114801 | 48 | 2 | 11.0 | 17.0 | 0.00 | 0.16 | 0.10 | 94 | 999.5 |
| 20260507113901 | 48 | 355 | 11.0 | 17.0 | 0.00 | 0.16 | 0.10 | 95 | 999.3 |
| 20260507113001 | 48 | 7 | 11.0 | 17.0 | 0.00 | 0.16 | 0.10 | 96 | 999.2 |
| 20260507112101 | 48 | 14 | 12.0 | 16.0 | 0.00 | 0.16 | 0.10 | 96 | 999.2 |
| 20260507111201 | 48 | 11 | 10.0 | 15.0 | 0.00 | 0.16 | 0.10 | 96 | 998.9 |
| 20260507110301 | 48 | 351 | 8.0 | 13.0 | 0.00 | 0.16 | 0.10 | 96 | 999.2 |
| 20260507105401 | 48 | 350 | 8.0 | 12.0 | 0.00 | 0.16 | 0.10 | 97 | 999.1 |
| 20260507104501 | 48 | 5 | 9.0 | 13.0 | 0.00 | 0.16 | 0.10 | 96 | 999.0 |
| 20260507103601 | 48 | 9 | 11.0 | 15.0 | 0.00 | 0.16 | 0.10 | 96 | 998.7 |
| 20260507102701 | 48 | 11 | 14.0 | 19.0 | 0.00 | 0.16 | 0.10 | 96 | 998.6 |
| 20260507101801 | 48 | 8 | 13.0 | 19.0 | 0.00 | 0.16 | 0.10 | 96 | 998.4 |
| 20260507100001 | 48 | 19 | 13.0 | 20.0 | 0.00 | 0.16 | 0.10 | 97 | 998.4 |
| 20260507094200 | 48 | 7 | 13.0 | 17.0 | 0.00 | 0.16 | 0.10 | 97 | 998.5 |
| 20260507093300 | 48 | 359 | 11.0 | 15.0 | 0.00 | 0.16 | 0.10 | 96 | 998.6 |
| 20260507092401 | 48 | 346 | 11.0 | 15.0 | 0.00 | 0.16 | 0.10 | 96 | 998.7 |
| 20260507091500 | 48 | 354 | 15.0 | 20.0 | 0.00 | 0.16 | 0.10 | 96 | 998.5 |
| 20260507085700 | 48 | 8 | 9.0 | 15.0 | 0.00 | 0.16 | 0.10 | 97 | 998.0 |
| 20260507084800 | 48 | 14 | 13.0 | 17.0 | 0.00 | 0.16 | 0.10 | 97 | 998.2 |
| 20260507083900 | 48 | 8 | 16.0 | 20.0 | 0.00 | 0.16 | 0.10 | 96 | 997.7 |
| 20260507083000 | 48 | 1 | 17.0 | 21.0 | 0.00 | 0.16 | 0.10 | 96 | 998.1 |
| 20260507082100 | 48 | 9 | 19.0 | 23.0 | 0.00 | 0.16 | 0.10 | 96 | 997.8 |
| 20260507081200 | 48 | 3 | 18.0 | 25.0 | 0.01 | 0.16 | 0.10 | 95 | 998.1 |
| 20260507080300 | 48 | 1 | 19.0 | 25.0 | 0.03 | 0.16 | 0.10 | 95 | 998.3 |
| 20260507075400 | 48 | 354 | 23.0 | 29.0 | 0.04 | 0.16 | 0.10 | 95 | 997.9 |
| 20260507074500 | 48 | 349 | 21.0 | 28.0 | 0.04 | 0.16 | 0.10 | 94 | 998.0 |
| 20260507073600 | 48 | 351 | 21.0 | 27.0 | 0.04 | 0.16 | 0.10 | 95 | 997.7 |
| 20260507072700 | 48 | 356 | 19.0 | 26.0 | 0.05 | 0.16 | 0.10 | 95 | 997.8 |
| 20260507071800 | 49 | 352 | 21.0 | 27.0 | 0.04 | 0.15 | 0.09 | 95 | 997.5 |
| 20260507070000 | 49 | 356 | 21.0 | 28.0 | 0.02 | 0.13 | 0.07 | 94 | 997.5 |
| 20260507065100 | 49 | 350 | 22.0 | 31.0 | 0.01 | 0.12 | 0.06 | 92 | 997.9 |
| 20260507064200 | 50 | 349 | 22.0 | 31.0 | 0.01 | 0.12 | 0.06 | 93 | 997.1 |
| 20260507063300 | 50 | 338 | 19.0 | 26.0 | 0.01 | 0.12 | 0.06 | 92 | 997.8 |
| 20260507062400 | 50 | 336 | 24.0 | 32.0 | 0.00 | 0.11 | 0.05 | 91 | 997.6 |
| 20260507060600 | 52 | 356 | 18.0 | 24.0 | 0.00 | 0.11 | 0.05 | 87 | 996.9 |
| 20260507055700 | 52 | 348 | 19.0 | 26.0 | 0.00 | 0.11 | 0.05 | 87 | 996.9 |
| 20260507054800 | 53 | 347 | 18.0 | 24.0 | 0.00 | 0.11 | 0.05 | 87 | 997.0 |
| 20260507053900 | 53 | 340 | 17.0 | 23.0 | 0.00 | 0.11 | 0.05 | 88 | 997.0 |
| 20260507053000 | 53 | 328 | 16.0 | 20.0 | 0.00 | 0.11 | 0.05 | 89 | 997.1 |
| 20260507052100 | 54 | 328 | 18.0 | 22.0 | 0.00 | 0.11 | 0.05 | 92 | 997.1 |
| 20260507051200 | 56 | 308 | 18.0 | 22.0 | 0.00 | 0.11 | 0.05 | 90 | 996.9 |
| 20260507050300 | 56 | 295 | 18.0 | 23.0 | 0.00 | 0.11 | 0.05 | 90 | 996.9 |
| 20260507045400 | 57 | 293 | 17.0 | 20.0 | 0.00 | 0.11 | 0.05 | 90 | 997.0 |
| 20260507044459 | 57 | 293 | 15.0 | 20.0 | 0.00 | 0.11 | 0.05 | 90 | 997.0 |
| 20260507043600 | 58 | 295 | 17.0 | 22.0 | 0.00 | 0.11 | 0.05 | 90 | 997.3 |
| 20260507042659 | 58 | 295 | 18.0 | 21.0 | 0.00 | 0.11 | 0.05 | 90 | 997.2 |
| 20260507041759 | 58 | 292 | 15.0 | 20.0 | 0.00 | 0.11 | 0.05 | 90 | 997.3 |
| 20260507040859 | 58 | 288 | 14.0 | 17.0 | 0.01 | 0.11 | 0.05 | 91 | 997.1 |
| 20260507035959 | 58 | 286 | 12.0 | 17.0 | 0.02 | 0.11 | 0.05 | 94 | 997.2 |
| 20260507035059 | 58 | 279 | 10.0 | 16.0 | 0.05 | 0.11 | 0.05 | 96 | 997.3 |
| 20260507034159 | 58 | 286 | 13.0 | 19.0 | 0.05 | 0.11 | 0.05 | 97 | 997.3 |
| 20260507033259 | 59 | 288 | 13.0 | 19.0 | 0.05 | 0.11 | 0.05 | 96 | 997.1 |
| 20260507032359 | 60 | 279 | 13.0 | 20.0 | 0.05 | 0.11 | 0.05 | 96 | 997.1 |
| 20260507031459 | 60 | 283 | 10.0 | 17.0 | 0.04 | 0.10 | 0.05 | 96 | 997.1 |
| 20260507030559 | 60 | 278 | 10.0 | 19.0 | 0.04 | 0.10 | 0.04 | 95 | 997.2 |
| 20260507025659 | 60 | 258 | 12.0 | 20.0 | 0.02 | 0.08 | 0.02 | 94 | 997.1 |
| 20260507024759 | 60 | 237 | 16.0 | 23.0 | 0.00 | 0.06 | 0.00 | 93 | 997.4 |
| 20260507023859 | 58 | 223 | 16.0 | 24.0 | 0.00 | 0.06 | 0.00 | 92 | 997.2 |
| 20260507022959 | 58 | 224 | 16.0 | 20.0 | 0.00 | 0.06 | 0.00 | 91 | 997.1 |
| 20260507022059 | 58 | 223 | 15.0 | 19.0 | 0.00 | 0.06 | 0.00 | 91 | 997.0 |
| 20260507021159 | 58 | 218 | 14.0 | 21.0 | 0.00 | 0.06 | 0.00 | 91 | 997.4 |
| 20260507020259 | 57 | 218 | 14.0 | 20.0 | 0.00 | 0.06 | 0.00 | 92 | 997.4 |
| 20260507015359 | 57 | 216 | 11.0 | 20.0 | 0.00 | 0.06 | 0.00 | 93 | 997.2 |
| 20260507014459 | 57 | 218 | 10.0 | 16.0 | 0.00 | 0.06 | 0.00 | 92 | 997.2 |